Regional Weather Roundup
Issued by NWS

Home | Current Version | Previous Version | Text Only | Print | Product List | Glossary On
Versions: 1 2 3 4 5 6 7 8 9 10 11 12 13 14 15 16 17 18 19 20 21 22 23 24 25 26 27 28 29 30 31 32 33 34 35 36 37 38 39 40 41 42 43 44 45 46 47 48 49 50
000
ASUS46 KPQR 221210
RWROR

OREGON REGIONAL WEATHER ROUNDUP
NATIONAL WEATHER SERVICE PORTLAND OR
400 AM PST THU FEB 22 2018

NOTE: "FAIR" INDICATES FEW OR NO CLOUDS BELOW 12,000 FEET WITH
NO SIGNIFICANT WEATHER AND/OR OBSTRUCTIONS TO VISIBILITY.

ORZ001>013-221300-
NORTHWEST OREGON


CITY           SKY/WX    TMP DP  RH WIND       PRES   REMARKS
ASTORIA        FAIR      33  30  88 E10       30.12R WCI  25
6HR MIN TEMP:  31; 6HR MAX TEMP:  34;

TILLAMOOK      CLOUDY    34  34 100 CALM      30.09S
NEWPORT        CLOUDY    32  32 100 CALM      30.09F
PORTLAND       FLURRIES  32  30  92 E9        30.12S
6HR MIN TEMP:  32; 6HR MAX TEMP:  33; 6HR PCP:  0.09;

VANCOUVER WA   CLOUDY    33  32  96 E3        30.12S
6HR MIN TEMP:  33; 6HR MAX TEMP:  33; 6HR PCP:  0.07;

SCAPPOOSE      LGT SNOW  32  31  96 CALM      30.12S FOG
6HR MIN TEMP:  32; 6HR MAX TEMP:  33; 6HR PCP:  0.06;

HILLSBORO      LGT SNOW  33  31  92 CALM      30.10S FOG
6HR MIN TEMP:  32; 6HR MAX TEMP:  33; 6HR PCP:  0.13;

AURORA         LGT SNOW  33  31  92 NE6       30.10F FOG
6HR MIN TEMP:  33; 6HR MAX TEMP:  36; 6HR PCP:  0.13;

MCMINNVILLE    CLOUDY    33  32  96 NE8       30.09S
6HR MIN TEMP:  33; 6HR MAX TEMP:  36; 6HR PCP:  0.08;

SALEM          CLOUDY    34  31  88 S9        30.06F
6HR MIN TEMP:  33; 6HR MAX TEMP:  34; 6HR PCP:  0.04;

CORVALLIS      FLURRIES  32  32 100 S5        30.06F
EUGENE         FLURRIES  32  32 100 S7        30.07F
6HR MIN TEMP:  31; 6HR MAX TEMP:  33; 6HR PCP:  0.09;

$$

ORZ021-028-221300-
SOUTHWEST OREGON


CITY           SKY/WX    TMP DP  RH WIND       PRES   REMARKS
NORTH BEND     LGT RAIN  36  34  92 SE8       30.14F
6HR MIN TEMP:  34; 6HR MAX TEMP:  39; 6HR PCP:  0.26;

BROOKINGS      LGT SNOW  33  32  96 SE7       30.17F FOG
ROSEBURG       LGT SNOW  33  32  96 SE9       30.10F FOG
6HR MIN TEMP:  32; 6HR MAX TEMP:  36; 6HR PCP:  0.22;

SEXTON SUMMIT  SNOW      22  21  96 SW9G18    29.96F VSB 1/4
6HR MIN TEMP:  19; 6HR MAX TEMP:  23; 6HR PCP:  0.22;

GRANTS PASS    SNOW      30  28  93 CALM      30.14F VSB 1/2
MEDFORD        SNOW      30  30 100 N7        30.10F VSB 1/2
6HR MIN TEMP:  30; 6HR MAX TEMP:  38; 6HR PCP:  0.03;

$$

ORZ014>016-041-221300-
COLUMBIA GORGE


CITY           SKY/WX    TMP DP  RH WIND       PRES   REMARKS
TROUTDALE      CLOUDY    32  28  85 E16       30.12S WCI  21
6HR MIN TEMP:  32; 6HR MAX TEMP:  34; 6HR PCP:  0.06;

HOOD RIVER     FLURRIES  27  25  93 CALM      30.17R
THE DALLES     LGT SNOW  27  24  89 CALM      30.20R FOG
6HR MIN TEMP:  26; 6HR MAX TEMP:  29; 6HR PCP: TRACE;

$$

ORZ029>031-041-044-049-050-061>064-502-503-505>511-221300-
EASTERN OREGON


CITY           SKY/WX    TMP DP  RH WIND       PRES   REMARKS
MADRAS         NOT AVBL
REDMOND        LGT SNOW  22  18  85 CALM      29.97S FOG
6HR MIN TEMP:  18; 6HR MAX TEMP:  25; 6HR PCP: TRACE;

BEND           MOCLDY    21  18  86 S3        29.96F
PRINEVILLE     LGT SNOW  19  18  93 CALM      29.97F
KLAMATH FALLS  CLOUDY    23  15  71 W5        29.96F
6HR MIN TEMP:  21; 6HR MAX TEMP:  28;

LAKEVIEW       MOCLDY    20  15  81 SW3       29.93F
HERMISTON      FAIR      20  19  96 CALM      30.18S
6HR MIN TEMP:  17; 6HR MAX TEMP:  25; 6HR PCP: TRACE;

PENDLETON      LGT SNOW  22  20  92 N3        30.11S FOG
6HR MIN TEMP:  22; 6HR MAX TEMP:  24; 6HR PCP:  0.03;

JOHN DAY       LGT SNOW  21  19  89 CALM      29.94S
MEACHAM        LGT SNOW  15  11  83 CALM      29.95R FOG
6HR MIN TEMP:  15; 6HR MAX TEMP:  17; 6HR PCP:  0.01;

LA GRANDE      FAIR      20  14  77 W8        30.00F
6HR MIN TEMP:  19; 6HR MAX TEMP:  26; 6HR PCP: TRACE;

BAKER CITY     MOCLDY    19  14  81 W6        29.95S
6HR MIN TEMP:  19; 6HR MAX TEMP:  25; 6HR PCP: TRACE;

BURNS          CLOUDY    20  15  81 W6        29.91F
6HR MIN TEMP:  18; 6HR MAX TEMP:  23; 6HR PCP: TRACE;

ROME             N/A     24  21  88 N6        29.88S
6HR MIN TEMP:  24; 6HR MAX TEMP:  26; 6HR PCP:  0.10;

ONTARIO        CLOUDY    27  21  78 W6        30.00F
6HR MIN TEMP:  27; 6HR MAX TEMP:  28; 6HR PCP: TRACE;

$$



USA.gov is the U.S. government's official web portal to all federal, state and local government web resources and services.